• In Hungary
  • List of Countries
  • For 7 days
  • Water Temperature
  • Satellite Maps
  • Weather Map
  • News
  • Weather Widgets
  • user-avatar
    Login

    Hourly Weather Shalim

    Today, 21 November, Tuesday

    Time Temperature Precipitation Wind Pressure Humidity
    00:00 +22°C° 0 mm 3 mps 738 mmHg 60%
    01:00 +22°C° 0 mm 3 mps 738 mmHg 61%
    02:00 +21°C° 0 mm 3 mps 738 mmHg 62%
    03:00 +21°C° 0 mm 3 mps 738 mmHg 63%
    04:00 +20°C° 0 mm 3 mps 738 mmHg 64%
    05:00 +20°C° 0 mm 2 mps 738 mmHg 65%
    06:00 +20°C° 0 mm 2 mps 738 mmHg 66%
    07:00 +20°C° 0 mm 2 mps 738 mmHg 67%
    08:00 +22°C° 0 mm 3 mps 738 mmHg 59%
    09:00 +23°C° 0 mm 4 mps 739 mmHg 52%
    10:00 +26°C° 0 mm 5 mps 739 mmHg 44%
    11:00 +27°C° 0 mm 5 mps 738 mmHg 40%
    12:00 +28°C° 0 mm 5 mps 738 mmHg 37%
    13:00 +29°C° 0 mm 5 mps 737 mmHg 33%
    14:00 +29°C° 0 mm 5 mps 737 mmHg 33%
    15:00 +29°C° 0 mm 5 mps 737 mmHg 34%
    16:00 +29°C° 0 mm 5 mps 736 mmHg 35%
    17:00 +28°C° 0 mm 5 mps 736 mmHg 41%
    18:00 +26°C° 0 mm 5 mps 736 mmHg 47%
    19:00 +25°C° 0 mm 5 mps 736 mmHg 53%
    20:00 +23°C° 0 mm 4 mps 736 mmHg 57%
    21:00 +23°C° 0 mm 4 mps 736 mmHg 61%
    22:00 +22°C° 0 mm 4 mps 737 mmHg 65%
    23:00 +22°C° 0 mm 4 mps 736 mmHg 67%

    Tomorrow, 22 November, Wednesday

    Time Temperature Precipitation Wind Pressure Humidity
    00:00 +22°C° 0 mm 3 mps 736 mmHg 69%
    01:00 +21°C° 0 mm 3 mps 736 mmHg 72%
    02:00 +21°C° 0 mm 3 mps 736 mmHg 73%
    03:00 +21°C° 0 mm 3 mps 736 mmHg 75%
    04:00 +20°C° 0 mm 2 mps 736 mmHg 77%
    05:00 +20°C° 0 mm 2 mps 736 mmHg 77%
    06:00 +20°C° 0 mm 2 mps 736 mmHg 78%
    07:00 +20°C° 0 mm 2 mps 736 mmHg 78%
    08:00 +22°C° 0 mm 3 mps 737 mmHg 69%
    09:00 +25°C° 0 mm 3 mps 737 mmHg 61%
    10:00 +26°C° 0 mm 4 mps 737 mmHg 53%
    11:00 +27°C° 0 mm 4 mps 737 mmHg 49%
    12:00 +28°C° 0 mm 4 mps 736 mmHg 45%
    13:00 +29°C° 0 mm 4 mps 736 mmHg 41%
    14:00 +29°C° 0 mm 4 mps 735 mmHg 42%
    15:00 +29°C° 0 mm 4 mps 735 mmHg 42%
    16:00 +29°C° 0 mm 5 mps 735 mmHg 43%
    17:00 +28°C° 0 mm 5 mps 735 mmHg 49%
    18:00 +26°C° 0 mm 5 mps 735 mmHg 55%
    19:00 +25°C° 0 mm 5 mps 735 mmHg 61%
    20:00 +25°C° 0 mm 5 mps 736 mmHg 64%
    21:00 +23°C° 0 mm 4 mps 736 mmHg 67%
    22:00 +23°C° 0 mm 4 mps 736 mmHg 70%
    23:00 +22°C° 0 mm 4 mps 736 mmHg 73%

    Day after tomorrow, 23 November, Thursday

    Time Temperature Precipitation Wind Pressure Humidity
    00:00 +22°C° 0 mm 3 mps 736 mmHg 75%
    01:00 +22°C° 0 mm 3 mps 736 mmHg 78%
    02:00 +22°C° 0 mm 3 mps 735 mmHg 80%
    03:00 +21°C° 0 mm 3 mps 735 mmHg 81%
    04:00 +21°C° 0 mm 3 mps 735 mmHg 83%
    05:00 +21°C° 0 mm 3 mps 735 mmHg 84%
    06:00 +21°C° 0 mm 3 mps 736 mmHg 84%
    07:00 +21°C° 0 mm 3 mps 736 mmHg 84%
    08:00 +24°C° 0 mm 3 mps 736 mmHg 76%
    09:00 +25°C° 0 mm 3 mps 737 mmHg 68%
    10:00 +27°C° 0 mm 4 mps 737 mmHg 60%
    11:00 +28°C° 0 mm 4 mps 737 mmHg 56%
    12:00 +29°C° 0 mm 4 mps 736 mmHg 53%
    13:00 +29°C° 0 mm 4 mps 735 mmHg 49%
    14:00 +29°C° 0 mm 4 mps 735 mmHg 52%
    15:00 +29°C° 0 mm 5 mps 735 mmHg 54%
    16:00 +29°C° 0 mm 5 mps 734 mmHg 56%
    17:00 +28°C° 0 mm 5 mps 734 mmHg 62%
    18:00 +27°C° 0 mm 5 mps 735 mmHg 67%
    19:00 +25°C° 0 mm 5 mps 735 mmHg 73%
    20:00 +25°C° 0 mm 5 mps 736 mmHg 74%
    21:00 +25°C° 0 mm 5 mps 736 mmHg 76%
    22:00 +25°C° 0 mm 5 mps 736 mmHg 77%
    23:00 +23°C° 0 mm 4 mps 736 mmHg 79%

    24 November, Friday

    Time Temperature Precipitation Wind Pressure Humidity
    00:00 +23°C° 0 mm 4 mps 736 mmHg 81%
    01:00 +23°C° 0 mm 4 mps 736 mmHg 82%
    02:00 +22°C° 0 mm 3 mps 736 mmHg 84%
    03:00 +22°C° 0 mm 3 mps 735 mmHg 85%
    04:00 +22°C° 0 mm 3 mps 735 mmHg 87%
    05:00 +22°C° 0 mm 3 mps 736 mmHg 87%
    06:00 +22°C° 0 mm 3 mps 736 mmHg 87%
    07:00 +22°C° 0 mm 3 mps 737 mmHg 88%
    08:00 +24°C° 0 mm 3 mps 737 mmHg 79%
    09:00 +26°C° 0 mm 3 mps 738 mmHg 70%
    10:00 +27°C° 0 mm 3 mps 738 mmHg 62%
    11:00 +28°C° 0 mm 3 mps 738 mmHg 58%
    12:00 +29°C° 0 mm 3 mps 737 mmHg 54%
    13:00 +30°C° 0 mm 3 mps 736 mmHg 49%
    14:00 +30°C° 0 mm 3 mps 736 mmHg 50%
    15:00 +30°C° 0 mm 3 mps 736 mmHg 50%
    16:00 +30°C° 0 mm 4 mps 736 mmHg 51%
    17:00 +29°C° 0 mm 4 mps 736 mmHg 57%
    18:00 +27°C° 0 mm 4 mps 737 mmHg 63%
    19:00 +26°C° 0 mm 4 mps 737 mmHg 70%
    20:00 +26°C° 0 mm 4 mps 737 mmHg 71%
    21:00 +25°C° 0 mm 4 mps 738 mmHg 73%
    22:00 +25°C° 0 mm 3 mps 738 mmHg 74%
    23:00 +24°C° 0 mm 3 mps 738 mmHg 76%

    25 November, Saturday

    Time Temperature Precipitation Wind Pressure Humidity
    00:00 +24°C° 0 mm 3 mps 738 mmHg 78%
    01:00 +24°C° 0 mm 3 mps 738 mmHg 79%
    02:00 +23°C° 0 mm 2 mps 738 mmHg 81%
    03:00 +23°C° 0 mm 2 mps 738 mmHg 82%
    04:00 +21°C° 0 mm 2 mps 738 mmHg 83%
    05:00 +21°C° 0 mm 2 mps 738 mmHg 82%
    06:00 +21°C° 0 mm 2 mps 739 mmHg 81%
    07:00 +21°C° 0 mm 2 mps 739 mmHg 80%
    08:00 +24°C° 0 mm 3 mps 740 mmHg 67%
    09:00 +26°C° 0 mm 4 mps 740 mmHg 53%
    10:00 +28°C° 0 mm 4 mps 740 mmHg 40%
    11:00 +29°C° 0 mm 5 mps 740 mmHg 35%
    12:00 +30°C° 0 mm 5 mps 739 mmHg 31%
    13:00 +32°C° 0 mm 5 mps 738 mmHg 26%
    14:00 +32°C° 0 mm 5 mps 738 mmHg 26%
    15:00 +32°C° 0 mm 5 mps 738 mmHg 26%
    16:00 +33°C° 0 mm 5 mps 738 mmHg 25%
    17:00 +30°C° 0 mm 5 mps 738 mmHg 32%
    18:00 +28°C° 0 mm 4 mps 739 mmHg 38%
    19:00 +27°C° 0 mm 4 mps 739 mmHg 44%
    20:00 +26°C° 0 mm 3 mps 739 mmHg 50%
    21:00 +25°C° 0 mm 3 mps 739 mmHg 55%
    22:00 +25°C° 0 mm 3 mps 739 mmHg 61%
    23:00 +24°C° 0 mm 3 mps 739 mmHg 64%

    26 November, Sunday

    Time Temperature Precipitation Wind Pressure Humidity
    00:00 +24°C° 0 mm 2 mps 739 mmHg 67%
    01:00 +23°C° 0 mm 2 mps 738 mmHg 69%
    02:00 +23°C° 0 mm 2 mps 739 mmHg 71%
    03:00 +21°C° 0 mm 2 mps 739 mmHg 72%
    04:00 +22°C° 0 mm 1 mps 739 mmHg 74%
    05:00 +21°C° 0 mm 2 mps 739 mmHg 73%
    06:00 +21°C° 0 mm 2 mps 740 mmHg 72%
    07:00 +21°C° 0 mm 2 mps 740 mmHg 71%
    08:00 +24°C° 0 mm 3 mps 741 mmHg 61%
    09:00 +26°C° 0 mm 4 mps 741 mmHg 51%
    10:00 +28°C° 0 mm 4 mps 741 mmHg 42%
    11:00 +29°C° 0 mm 4 mps 740 mmHg 36%
    12:00 +32°C° 0 mm 5 mps 740 mmHg 31%
    13:00 +33°C° 0 mm 5 mps 739 mmHg 26%
    14:00 +33°C° 0 mm 5 mps 739 mmHg 24%
    15:00 +33°C° 0 mm 5 mps 739 mmHg 23%
    16:00 +33°C° 0 mm 5 mps 738 mmHg 22%
    17:00 +32°C° 0 mm 4 mps 738 mmHg 26%
    18:00 +29°C° 0 mm 4 mps 739 mmHg 29%
    19:00 +28°C° 0 mm 3 mps 739 mmHg 33%
    20:00 +27°C° 0 mm 2 mps 739 mmHg 37%
    21:00 +26°C° 0 mm 2 mps 739 mmHg 41%
    22:00 +25°C° 0 mm 2 mps 739 mmHg 45%
    23:00 +25°C° 0 mm 1 mps 739 mmHg 49%
    Show more